Location: Unspecified
(0.0000°N, 0.0000°E)
Time: 12:37:06
(UTC+00:00)

Vanguard 2 Rocket - Pass Details

Date: 16 December 2017
Orbit: 553 x 3328 km, 32.9° (Epoch: 18 June)

Event Time Altitude Azimuth Distance (km) Brightness Sun altitude
Rises 22:10:40 0° 320° (NW) 6,332 11.2 -55.4°
Enters shadow 22:14:12 - 328° (NNW) 5,909 10.9 -56.0°
Reaches altitude 10° 22:16:12 10° 333° (NNW) 5,704 - -56.4°
Maximum altitude 22:29:46 24° 21° (NNE) 5,147 - -58.6°
Drops below altitude 10° 22:44:11 10° 67° (ENE) 6,140 - -60.9°
Sets 22:50:22 0° 80° (E) 6,912 - -61.7°
